GW5864 Weather Reports


time (UTC)temp
C
wind
direction
speed
KPH
gust
KPH
rain 1hr
cm
rain 24hr
cm
rain mn
cm
humidity
%
barometer
mb
20260505124638 16 116 3.2 6.4 0.00 0.51 0.51 99 1008.3
20260505123619 15 118 4.8 6.4 0.00 0.51 0.51 99 1008.2
20260505122633 15 0.0 0.0 0.00 0.51 0.51 99 1008.2
20260505121616 15 0.0 0.0 0.00 0.51 0.51 99 1008.2
20260505120618 15 304 3.2 4.8 0.00 0.51 0.51 99 1008.0
20260505115619 15 304 1.6 4.8 0.00 0.51 0.51 99 1007.9
20260505114620 15 76 6.4 9.7 0.00 0.51 0.51 99 1007.7
20260505113621 15 344 6.4 8.0 0.03 0.51 0.51 99 1007.5
20260505112622 15 313 8.0 9.7 0.03 0.51 0.51 99 1007.5
20260505111617 15 338 6.4 9.7 0.03 0.51 0.51 99 1006.6
20260505110645 15 158 1.6 4.8 0.03 0.51 0.51 99 1006.5
20260505101624 15 1.6 6.4 0.08 0.48 0.48 99 1007.1
20260505100626 15 113 4.8 4.8 0.13 0.48 0.48 99 1007.3
20260505095627 15 128 3.2 4.8 0.15 0.48 0.48 99 1007.3
20260505094628 15 158 3.2 3.2 0.20 0.48 0.48 99 1007.4
20260505093629 15 0.0 0.0 0.23 0.46 0.46 99 1008.2
20260505092624 15 0.0 0.0 0.33 0.46 0.46 99 1008.0
20260505091621 15 126 3.2 3.2 0.36 0.41 0.41 99 1008.2
20260505090627 15 268 3.2 4.8 0.33 0.36 0.36 99 1008.3
20260505085628 15 275 6.4 8.0 0.33 0.33 0.33 99 1008.1
20260505084629 15 248 4.8 4.8 0.28 0.28 0.28 99 1007.9
20260505083630 15 315 0.0 1.6 0.23 0.23 0.23 99 1007.9
20260505082632 15 225 1.6 3.2 0.13 0.13 0.13 99 1008.0
20260505081635 15 293 6.4 6.4 0.05 0.05 0.05 99 1008.0
20260505080636 16 291 6.4 8.0 0.03 0.03 0.03 95 1007.9
20260505075637 16 253 4.8 6.4 0.00 0.00 0.00 92 1007.6
20260505074619 17 277 3.2 4.8 0.00 0.00 0.00 88 1007.3
20260505073619 17 0.0 0.0 0.00 0.00 0.00 84 1007.5
20260505072620 17 203 0.0 1.6 0.00 0.00 0.00 84 1007.2
20260505071616 17 176 3.2 6.4 0.00 0.00 0.00 83 1007.3
20260505070617 17 129 4.8 6.4 0.00 0.00 0.00 84 1007.7
20260505065618 17 153 4.8 6.4 0.00 0.00 0.00 84 1007.8
20260505064619 17 141 4.8 6.4 0.00 0.00 0.00 83 1007.9
20260505063640 17 169 4.8 8.0 0.00 0.00 0.00 84 1008.0
20260505062622 17 167 4.8 6.4 0.00 0.00 0.00 83 1008.2
20260505061623 17 177 4.8 6.4 0.00 0.00 0.00 84 1008.4
20260505060624 17 192 3.2 4.8 0.00 0.00 0.00 84 1008.3
20260505055646 17 146 4.8 6.4 0.00 0.00 0.00 84 1008.2
20260505054627 17 168 3.2 4.8 0.00 0.00 0.00 84 1008.0
20260505053628 17 135 6.4 12.9 0.00 0.00 0.00 84 1008.2
20260505052630 17 144 4.8 9.7 0.00 0.00 0.00 84 1008.2
20260505051643 16 129 4.8 6.4 0.00 0.00 0.00 85 1008.5
20260505050618 16 140 3.2 4.8 0.00 0.00 0.00 86 1008.4
20260505041620 17 147 4.8 4.8 0.00 0.00 0.00 83 1008.9
20260505040619 17 144 4.8 8.0 0.00 0.00 0.00 81 1009.2
20260505035621 17 142 3.2 4.8 0.00 0.00 0.00 81 1009.2
20260505034702 17 151 4.8 4.8 0.00 0.00 0.00 80 1009.2
20260505033643 18 144 3.2 4.8 0.00 0.00 0.00 79 1009.2
20260505032624 18 158 3.2 4.8 0.00 0.00 0.00 78 1009.4
20260505031625 18 130 6.4 8.0 0.00 0.00 0.00 77 1009.4
20260505030621 18 139 6.4 8.0 0.00 0.00 0.00 76 1009.2
20260505025616 18 141 4.8 6.4 0.00 0.00 0.00 76 1009.2
20260505024643 18 135 1.6 3.2 0.00 0.00 0.00 76 1009.1
20260505023624 18 139 4.8 6.4 0.00 0.00 0.00 75 1008.9
20260505022626 19 165 3.2 6.4 0.00 0.00 0.00 74 1008.7
20260505021647 19 162 1.6 3.2 0.00 0.00 0.00 73 1008.3
20260505020628 20 161 3.2 6.4 0.00 0.00 0.00 72 1008.2
20260505015649 20 143 4.8 8.0 0.00 0.00 0.00 72 1008.1
20260505014624 20 167 3.2 6.4 0.00 0.00 0.00 72 1008.0
20260505013642 20 161 3.2 6.4 0.00 0.00 0.00 72 1007.8
20260505012621 20 149 3.2 3.2 0.00 0.00 0.00 70 1007.8
20260505011623 21 146 3.2 4.8 0.00 0.00 0.00 68 1007.7
20260505010624 21 139 3.2 4.8 0.00 0.00 0.00 68 1007.5
20260505005619 21 139 1.6 3.2 0.00 0.00 0.00 65 1007.3
20260505004640 22 140 3.2 4.8 0.00 0.00 0.00 63 1007.2
20260505003621 22 128 4.8 6.4 0.00 0.00 0.00 61 1007.2
20260505002622 23 198 3.2 6.4 0.00 0.00 0.00 58 1007.0
20260505001624 24 148 3.2 4.8 0.00 0.00 0.00 57 1006.9
20260505000625 25 148 3.2 6.4 0.00 0.00 0.00 55 1006.9
20260504235626 26 105 1.6 3.2 0.00 0.00 0.00 53 1007.0
20260504234627 26 231 3.2 6.4 0.00 0.00 0.00 49 1007.1
20260504233708 26 212 6.4 11.3 0.00 0.00 0.00 50 1007.2
20260504232629 27 213 4.8 9.7 0.00 0.00 0.00 48 1007.3
20260504231630 28 203 4.8 9.7 0.00 0.00 0.00 47 1007.2
20260504230624 28 134 4.8 9.7 0.00 0.00 0.00 47 1007.3
20260504225619 28 249 8.0 11.3 0.00 0.00 0.00 44 1007.3
20260504224615 28 211 8.0 11.3 0.00 0.00 0.00 44 1007.4
20260504223616 27 198 8.0 12.9 0.00 0.00 0.00 46 1007.5
20260504222637 27 225 6.4 11.3 0.00 0.00 0.00 47 1007.5
20260504221618 27 166 4.8 6.4 0.00 0.00 0.00 48 1007.6
20260504220619 27 132 4.8 8.0 0.00 0.00 0.00 48 1007.5
20260504215621 27 125 4.8 9.7 0.00 0.00 0.00 49 1007.6
20260504214622 28 185 9.7 17.7 0.00 0.00 0.00 48 1007.6
20260504213623 28 157 6.4 8.0 0.00 0.00 0.00 48 1007.6
20260504212646 27 179 8.0 16.1 0.00 0.00 0.00 51 1007.7
20260504211627 28 212 9.7 16.1 0.00 0.00 0.00 48 1007.9
20260504210627 28 265 9.7 14.5 0.00 0.00 0.00 46 1008.0
20260504205622 28 258 8.0 11.3 0.00 0.00 0.00 49 1008.1
20260504204617 28 242 8.0 11.3 0.00 0.00 0.00 46 1008.2
20260504203630 28 245 11.3 19.3 0.00 0.00 0.00 48 1008.4
20260504202631 28 249 9.7 14.5 0.00 0.00 0.00 48 1008.5
20260504201647 28 142 8.0 9.7 0.00 0.00 0.00 49 1008.5
20260504200628 28 178 8.0 9.7 0.00 0.00 0.00 49 1008.7
20260504195628 27 225 11.3 16.1 0.00 0.00 0.00 48 1008.7
20260504194650 28 260 12.9 16.1 0.00 0.00 0.00 48 1008.7
20260504193631 28 260 8.0 12.9 0.00 0.00 0.00 49 1008.9
20260504192632 28 169 6.4 9.7 0.00 0.00 0.00 51 1009.1
20260504191615 27 231 12.9 19.3 0.00 0.00 0.00 48 1009.1
20260504190657 27 299 9.7 14.5 0.00 0.00 0.00 49 1009.2
20260504185638 27 271 8.0 11.3 0.00 0.00 0.00 49 1009.2
20260504184619 27 259 12.9 17.7 0.00 0.00 0.00 50 1009.2
20260504183632 27 300 8.0 11.3 0.00 0.00 0.00 51 1009.4
20260504182616 27 188 6.4 16.1 0.00 0.00 0.00 52 1009.4
20260504181631 27 207 9.7 17.7 0.00 0.00 0.00 51 1009.4
20260504180631 27 213 8.0 11.3 0.00 0.00 0.00 52 1009.4
20260504175632 27 231 8.0 11.3 0.00 0.00 0.00 51 1009.5
20260504174615 27 217 9.7 14.5 0.00 0.00 0.00 51 1009.6
20260504173617 26 241 9.7 12.9 0.00 0.00 0.00 49 1009.8
20260504172617 27 236 8.0 11.3 0.00 0.00 0.00 51 1009.8
20260504171639 26 274 9.7 12.9 0.00 0.00 0.00 50 1009.9
20260504170620 26 271 8.0 11.3 0.00 0.00 0.00 50 1010.2
20260504150616 23 248 9.7 19.3 0.00 0.00 0.00 54 1011.3
20260504140623 22 201 4.8 6.4 0.00 0.00 0.00 59 1012.0
20260504130630 18 182 1.6 4.8 0.00 0.00 0.00 71 1012.3